,,,PA_Meas_PMT16A,,PR_Meas_QMR101_102,,RH_Meas_QMH101,,SR_Meas_QMS101,,TA_Meas_QMH101,,GenWind,,GenWind,
date,time,status,PA,status,PR,status,RH,status,SR,status,TA,status,DirAvg,status,SpdAvg,
2008-07-18, 06:37:04,VALID,1003.93,VALID,0,VALID,96.5359,VALID,78.3385,VALID,24.2875,VALID,85,VALID,0.0472656,
2008-07-18, 06:38:04,VALID,1003.94,VALID,0,VALID,96.5816,VALID,79.847,VALID,24.3265,VALID,85,VALID,0.390234,
2008-07-18, 06:39:04,VALID,1003.93,VALID,0,VALID,96.574,VALID,81.3554,VALID,24.3867,VALID,85,VALID,0,
2008-07-18, 06:40:04,VALID,1003.95,VALID,0,VALID,96.574,VALID,82.6627,VALID,24.4043,VALID,85,VALID,0.194531,
2008-07-18, 06:41:04,VALID,1003.94,VALID,0,VALID,96.5664,VALID,84.0706,VALID,24.4646,VALID,85,VALID,0.286719,
2008-07-18, 06:42:04,VALID,1003.96,VALID,0,VALID,96.5587,VALID,85.5791,VALID,24.4841,VALID,79,VALID,0.510547,
2008-07-18, 06:43:04,VALID,1003.97,VALID,0,VALID,96.5511,VALID,87.3892,VALID,24.4628,VALID,61,VALID,0.238672,
2008-07-18, 06:44:04,VALID,1003.96,VALID,0,VALID,96.5587,VALID,89.4005,VALID,24.4822,VALID,61,VALID,0.355078,
2008-07-18, 06:45:04,VALID,1003.96,VALID,0,VALID,96.5511,VALID,91.4117,VALID,24.5212,VALID,61,VALID,0.175391,
2008-07-18, 06:46:04,VALID,1003.92,VALID,0,VALID,96.5511,VALID,93.3224,VALID,24.5406,VALID,62,VALID,0.371484,
2008-07-18, 06:47:04,VALID,1003.91,VALID,0,VALID,96.5282,VALID,94.9314,VALID,24.5406,VALID,62,VALID,0.0503906,
2008-07-18, 06:48:04,VALID,1003.89,VALID,0,VALID,96.5664,VALID,96.0376,VALID,24.6204,VALID,62,VALID,0.227344,
2008-07-18, 06:49:04,VALID,1003.9,VALID,0,VALID,96.5282,VALID,96.641,VALID,24.5601,VALID,63,VALID,0.354297,
2008-07-18, 06:50:04,VALID,1003.89,VALID,0,VALID,96.5435,VALID,96.8421,VALID,24.5796,VALID,64,VALID,0.177344,
2008-07-18, 06:51:04,VALID,1003.89,VALID,0,VALID,96.5359,VALID,96.8421,VALID,24.6185,VALID,63,VALID,0,
2008-07-18, 06:52:04,VALID,1003.89,VALID,0,VALID,96.5435,VALID,96.7416,VALID,24.6788,VALID,66,VALID,0.444141,
2008-07-18, 06:53:04,VALID,1003.9,VALID,0,VALID,96.5359,VALID,96.9427,VALID,24.6983,VALID,66,VALID,0.403125,
2008-07-18, 06:54:04,VALID,1003.89,VALID,0,VALID,96.5206,VALID,97.1438,VALID,24.7177,VALID,67,VALID,0.319531,
2008-07-18, 06:55:04,VALID,1003.93,VALID,0,VALID,96.5206,VALID,97.0432,VALID,24.7586,VALID,68,VALID,0.322266,
2008-07-18, 06:56:04,VALID,1003.93,VALID,0,VALID,96.5206,VALID,96.8421,VALID,24.7372,VALID,76,VALID,0.507031,
2008-07-18, 06:57:04,VALID,1003.93,VALID,0,VALID,96.513,VALID,96.1382,VALID,24.6983,VALID,85,VALID,0.565625,
2008-07-18, 06:58:04,VALID,1003.97,VALID,0,VALID,96.5053,VALID,95.4342,VALID,24.6769,VALID,83,VALID,0.698047,
2008-07-18, 06:59:04,VALID,1004.01,VALID,0,VALID,96.4977,VALID,94.7303,VALID,24.7196,VALID,92,VALID,0.516016,
2008-07-18, 07:00:04,VALID,1004.03,VALID,0,VALID,96.4977,VALID,94.328,VALID,24.6983,VALID,116,VALID,0.776953,
2008-07-18, 07:01:04,VALID,1004.07,VALID,0,VALID,96.5053,VALID,94.0264,VALID,24.6983,VALID,128,VALID,0.684375,
2008-07-18, 07:02:04,VALID,1004.08,VALID,0,VALID,96.4901,VALID,94.1269,VALID,24.6593,VALID,119,VALID,1.00195,
2008-07-18, 07:03:04,VALID,1004.12,VALID,0,VALID,96.4901,VALID,94.0264,VALID,24.6612,VALID,108,VALID,0.65625,
2008-07-18, 07:04:04,VALID,1004.12,VALID,0,VALID,96.4901,VALID,94.1269,VALID,24.6788,VALID,129,VALID,0.782422,
2008-07-18, 07:05:04,VALID,1004.16,VALID,0,VALID,96.4748,VALID,94.2275,VALID,24.6398,VALID,107,VALID,0.721875,
2008-07-18, 07:06:04,VALID,1004.16,VALID,0,VALID,96.4748,VALID,94.1269,VALID,24.599,VALID,88,VALID,0.510938,
2008-07-18, 07:07:04,VALID,1004.17,VALID,0,VALID,96.4748,VALID,94.1269,VALID,24.6204,VALID,100,VALID,0.688281,
2008-07-18, 07:08:04,VALID,1004.17,VALID,0,VALID,96.4901,VALID,93.6241,VALID,24.638,VALID,93,VALID,0.742969,
2008-07-18, 07:09:04,VALID,1004.16,VALID,0,VALID,96.4748,VALID,92.719,VALID,24.6769,VALID,93,VALID,0.519141,
2008-07-18, 07:10:04,VALID,1004.17,VALID,0,VALID,96.4825,VALID,91.11,VALID,24.6964,VALID,93,VALID,0.387109,
2008-07-18, 07:11:04,VALID,1004.16,VALID,0,VALID,96.4977,VALID,89.0988,VALID,24.7548,VALID,93,VALID,0.306641,
2008-07-18, 07:12:04,VALID,1004.14,VALID,0,VALID,96.4748,VALID,86.7858,VALID,24.7743,VALID,93,VALID,0.308984,
2008-07-18, 07:13:04,VALID,1004.15,VALID,0,VALID,96.4977,VALID,84.2718,VALID,24.7937,VALID,93,VALID,0.457422,
2008-07-18, 07:14:04,VALID,1004.18,VALID,0,VALID,96.4672,VALID,81.5565,VALID,24.8522,VALID,94,VALID,0.425,
2008-07-18, 07:15:04,VALID,1004.16,VALID,0,VALID,96.4672,VALID,79.143,VALID,24.7937,VALID,94,VALID,0.349219,
2008-07-18, 07:16:04,VALID,1004.18,VALID,0,VALID,96.4214,VALID,77.0312,VALID,24.7548,VALID,109,VALID,0.541016,
2008-07-18, 07:17:04,VALID,1004.18,VALID,0,VALID,96.4596,VALID,75.4222,VALID,24.7743,VALID,95,VALID,0.554688,
2008-07-18, 07:18:04,VALID,1004.19,VALID,0,VALID,96.4596,VALID,73.4109,VALID,24.7567,VALID,98,VALID,0.616016,
2008-07-18, 07:19:04,VALID,1004.16,VALID,0,VALID,96.4519,VALID,71.9025,VALID,24.7335,VALID,98,VALID,0.273828,
2008-07-18, 07:20:04,VALID,1004.16,VALID,0,VALID,96.4367,VALID,70.7963,VALID,24.7548,VALID,98,VALID,0.410156,
2008-07-18, 07:21:04,VALID,1004.16,VALID,0,VALID,96.4443,VALID,69.8913,VALID,24.7956,VALID,98,VALID,0.00195313,
2008-07-18, 07:22:04,VALID,1004.17,VALID,0,VALID,96.4214,VALID,69.2879,VALID,24.7956,VALID,98,VALID,0.331641,
2008-07-18, 07:23:04,VALID,1004.17,VALID,0,VALID,96.429,VALID,68.9862,VALID,24.7761,VALID,98,VALID,0.483203,
2008-07-18, 07:24:04,VALID,1004.21,VALID,0,VALID,96.4367,VALID,68.7851,VALID,24.7956,VALID,100,VALID,0.647656,
2008-07-18, 07:25:04,VALID,1004.2,VALID,0,VALID,96.4367,VALID,68.8856,VALID,24.7761,VALID,79,VALID,0.737891,
2008-07-18, 07:26:04,VALID,1004.2,VALID,0,VALID,96.4214,VALID,69.1873,VALID,24.778,VALID,100,VALID,0.749609,
2008-07-18, 07:27:04,VALID,1004.23,VALID,0,VALID,96.4138,VALID,69.7907,VALID,24.7761,VALID,109,VALID,0.625,
2008-07-18, 07:28:04,VALID,1004.2,VALID,0,VALID,96.4214,VALID,70.5952,VALID,24.8364,VALID,110,VALID,0.489062,
2008-07-18, 07:29:04,VALID,1004.24,VALID,0,VALID,96.429,VALID,71.5003,VALID,24.893,VALID,110,VALID,0.258594,
2008-07-18, 07:30:04,VALID,1004.25,VALID,0,VALID,96.4138,VALID,72.4053,VALID,24.8735,VALID,104,VALID,0.542188,
2008-07-18, 07:31:04,VALID,1004.31,VALID,0,VALID,96.429,VALID,73.2098,VALID,24.893,VALID,102,VALID,0.423047,
2008-07-18, 07:32:04,VALID,1004.32,VALID,0,VALID,96.4138,VALID,74.2155,VALID,24.9338,VALID,95,VALID,0.596875,
2008-07-18, 07:33:04,VALID,1004.32,VALID,0,VALID,96.4062,VALID,75.5228,VALID,24.9728,VALID,92,VALID,0.389453,
2008-07-18, 07:34:04,VALID,1004.33,VALID,0,VALID,96.3909,VALID,76.9307,VALID,24.9728,VALID,71,VALID,0.382031,
2008-07-18, 07:35:04,VALID,1004.33,VALID,0,VALID,96.368,VALID,78.4391,VALID,24.9143,VALID,72,VALID,1.23125,
2008-07-18, 07:36:04,VALID,1004.33,VALID,0,VALID,96.3909,VALID,80.2492,VALID,24.8716,VALID,74,VALID,0.364062,
2008-07-18, 07:37:04,VALID,1004.35,VALID,0,VALID,96.3909,VALID,82.4616,VALID,24.8911,VALID,72,VALID,0.529688,
2008-07-18, 07:38:04,VALID,1004.37,VALID,0,VALID,96.3756,VALID,85.0762,VALID,24.8892,VALID,64,VALID,0.781641,
2008-07-18, 07:39:04,VALID,1004.38,VALID,0,VALID,96.368,VALID,84.8751,VALID,24.9319,VALID,71,VALID,0.510156,
2008-07-18, 07:40:04,VALID,1004.37,VALID,0,VALID,96.368,VALID,83.9701,VALID,24.8892,VALID,83,VALID,0.455469,
2008-07-18, 07:41:04,VALID,1004.38,VALID,0,VALID,96.3604,VALID,85.0762,VALID,24.9709,VALID,83,VALID,0.333984,
2008-07-18, 07:42:04,VALID,1004.36,VALID,0,VALID,96.3528,VALID,87.3892,VALID,24.9514,VALID,82,VALID,0.445703,
2008-07-18, 07:43:04,VALID,1004.39,VALID,0,VALID,96.3528,VALID,95.2331,VALID,24.9709,VALID,82,VALID,0.383984,
2008-07-18, 07:44:04,VALID,1004.37,VALID,0,VALID,96.3528,VALID,95.937,VALID,24.9495,VALID,80,VALID,0.461328,
2008-07-18, 07:45:04,VALID,1004.39,VALID,0,VALID,96.3375,VALID,135.358,VALID,24.9319,VALID,64,VALID,0.528516,
2008-07-18, 07:46:04,VALID,1004.43,VALID,0,VALID,96.3528,VALID,247.687,VALID,25.0098,VALID,67,VALID,0.316016,
2008-07-18, 07:47:04,VALID,1004.4,VALID,0,VALID,96.3451,VALID,270.414,VALID,25.0469,VALID,79,VALID,0.656641,
2008-07-18, 07:48:04,VALID,1004.41,VALID,0,VALID,96.3756,VALID,298.672,VALID,25.1442,VALID,102,VALID,0.660937,
2008-07-18, 07:49:04,VALID,1004.4,VALID,0,VALID,96.3604,VALID,323.41,VALID,25.3409,VALID,101,VALID,0.262109,
2008-07-18, 07:50:04,VALID,1004.41,VALID,0,VALID,96.3451,VALID,273.732,VALID,25.3993,VALID,59,VALID,0.591016,
2008-07-18, 07:51:04,VALID,1004.44,VALID,0,VALID,96.3375,VALID,198.511,VALID,25.3,VALID,85,VALID,0.465625,
2008-07-18, 07:52:04,VALID,1004.41,VALID,0,VALID,96.307,VALID,296.661,VALID,25.3798,VALID,88,VALID,0.382422,
2008-07-18, 07:53:04,VALID,1004.41,VALID,0,VALID,96.2994,VALID,443.885,VALID,25.5162,VALID,88,VALID,0.240234,
2008-07-18, 07:54:04,VALID,1004.41,VALID,0,VALID,96.2841,VALID,411.001,VALID,25.4967,VALID,90,VALID,0.698828,
2008-07-18, 07:55:04,VALID,1004.42,VALID,0,VALID,96.2231,VALID,344.126,VALID,25.4577,VALID,88,VALID,0.464453,
2008-07-18, 07:56:04,VALID,1004.4,VALID,0,VALID,96.1926,VALID,392.095,VALID,25.4383,VALID,128,VALID,0.717578,
2008-07-18, 07:57:04,VALID,1004.39,VALID,0,VALID,96.1544,VALID,403.861,VALID,25.4383,VALID,135,VALID,1.00156,
2008-07-18, 07:58:04,VALID,1004.42,VALID,0,VALID,96.162,VALID,418.141,VALID,25.5941,VALID,89,VALID,0.751562,
2008-07-18, 07:59:04,VALID,1004.45,VALID,0,VALID,96.0018,VALID,256.436,VALID,25.4012,VALID,96,VALID,1.06992,
2008-07-18, 08:00:04,VALID,1004.45,VALID,0,VALID,95.9637,VALID,252.212,VALID,25.4792,VALID,140,VALID,0.766406,
2008-07-18, 08:01:04,VALID,1004.44,VALID,0,VALID,95.8493,VALID,250.905,VALID,25.4967,VALID,122,VALID,0.472656,
2008-07-18, 08:02:04,VALID,1004.47,VALID,0,VALID,95.8187,VALID,250.603,VALID,25.5162,VALID,124,VALID,0.403516,
2008-07-18, 08:03:04,VALID,1004.48,VALID,0,VALID,95.4526,VALID,258.346,VALID,25.3409,VALID,145,VALID,1.61055,
2008-07-18, 08:04:04,VALID,1004.5,VALID,0,VALID,94.6668,VALID,286.504,VALID,25.2844,VALID,144,VALID,1.63008,
2008-07-18, 08:05:04,VALID,1004.54,VALID,0,VALID,94.7583,VALID,316.472,VALID,25.3039,VALID,127,VALID,1.35117,
2008-07-18, 08:06:04,VALID,1004.54,VALID,0,VALID,94.6439,VALID,368.865,VALID,25.3019,VALID,140,VALID,1.31914,
2008-07-18, 08:07:04,VALID,1004.52,VALID,0,VALID,94.4074,VALID,445.997,VALID,25.3409,VALID,174,VALID,1.32578,
2008-07-18, 08:08:04,VALID,1004.53,VALID,0,VALID,94.8422,VALID,435.739,VALID,25.4967,VALID,151,VALID,1.20391,
2008-07-18, 08:09:04,VALID,1004.48,VALID,0,VALID,94.148,VALID,559.733,VALID,25.4577,VALID,165,VALID,1.125,
2008-07-18, 08:10:04,VALID,1004.49,VALID,0,VALID,94.4761,VALID,618.462,VALID,25.6136,VALID,158,VALID,0.857422,
2008-07-18, 08:11:04,VALID,1004.47,VALID,0,VALID,93.3165,VALID,605.288,VALID,25.5551,VALID,157,VALID,1.30586,
2008-07-18, 08:12:04,VALID,1004.48,VALID,0,VALID,94.4608,VALID,595.433,VALID,25.8278,VALID,161,VALID,0.733594,
2008-07-18, 08:13:04,VALID,1004.48,VALID,0,VALID,93.553,VALID,585.779,VALID,25.8278,VALID,131,VALID,0.775391,
2008-07-18, 08:14:04,VALID,1004.47,VALID,0,VALID,93.0723,VALID,561.644,VALID,25.9447,VALID,159,VALID,0.612109,
2008-07-18, 08:15:04,VALID,1004.45,VALID,0,VALID,92.7596,VALID,554.806,VALID,25.9427,VALID,204,VALID,0.346875,
2008-07-18, 08:16:04,VALID,1004.5,VALID,0,VALID,92.935,VALID,529.866,VALID,25.9856,VALID,130,VALID,0.420703,
2008-07-18, 08:17:04,VALID,1004.49,VALID,0,VALID,91.6,VALID,503.318,VALID,25.9642,VALID,133,VALID,1.3957,
2008-07-18, 08:18:04,VALID,1004.46,VALID,0,VALID,90.715,VALID,522.123,VALID,26.0071,VALID,152,VALID,1.7918,
2008-07-18, 08:19:04,VALID,1004.45,VALID,0,VALID,90.6845,VALID,536,VALID,26.0206,VALID,162,VALID,1.73398,
2008-07-18, 08:20:04,VALID,1004.45,VALID,0,VALID,89.3037,VALID,544.85,VALID,26.0031,VALID,155,VALID,1.8918,
2008-07-18, 08:21:04,VALID,1004.44,VALID,0,VALID,89.5936,VALID,532.28,VALID,25.9836,VALID,174,VALID,1.45664,
2008-07-18, 08:22:04,VALID,1004.44,VALID,0,VALID,89.8835,VALID,521.922,VALID,26.0401,VALID,174,VALID,1.54766,
2008-07-18, 08:23:04,VALID,1004.43,VALID,0,VALID,90.4099,VALID,517.296,VALID,26.159,VALID,186,VALID,0.515625,
2008-07-18, 08:24:04,VALID,1004.39,VALID,0,VALID,89.7385,VALID,505.932,VALID,26.2564,VALID,170,VALID,0.925391,
2008-07-18, 08:25:04,VALID,1004.4,VALID,0,VALID,90.0132,VALID,507.441,VALID,26.3128,VALID,162,VALID,1.3543,
2008-07-18, 08:26:04,VALID,1004.41,VALID,0,VALID,86.3894,VALID,507.24,VALID,26.3733,VALID,158,VALID,1.63711,
2008-07-18, 08:27:04,VALID,1004.45,VALID,0,VALID,87.6024,VALID,419.448,VALID,26.4317,VALID,127,VALID,1.13672,
2008-07-18, 08:28:04,VALID,1004.43,VALID,0,VALID,87.1447,VALID,491.652,VALID,26.4532,VALID,155,VALID,1.13633,
2008-07-18, 08:29:04,VALID,1004.4,VALID,0,VALID,86.7938,VALID,499.396,VALID,26.4512,VALID,124,VALID,1.0043,
2008-07-18, 08:30:04,VALID,1004.47,VALID,0,VALID,87.755,VALID,491.954,VALID,26.4922,VALID,141,VALID,0.853125,
2008-07-18, 08:31:04,VALID,1004.47,VALID,0,VALID,87.2286,VALID,485.82,VALID,26.5701,VALID,82,VALID,0.827734,
2008-07-18, 08:32:04,VALID,1004.46,VALID,0,VALID,87.755,VALID,508.647,VALID,26.7065,VALID,115,VALID,1.13008,
2008-07-18, 08:33:04,VALID,1004.47,VALID,0,VALID,87.1142,VALID,521.821,VALID,26.7455,VALID,150,VALID,1.2582,
2008-07-18, 08:34:04,VALID,1004.45,VALID,0,VALID,86.2903,VALID,477.976,VALID,26.7824,VALID,173,VALID,1.64961,
2008-07-18, 08:35:04,VALID,1004.47,VALID,0,VALID,84.1618,VALID,528.559,VALID,26.8039,VALID,189,VALID,1.94141,
2008-07-18, 08:36:04,VALID,1004.45,VALID,0,VALID,84.9628,VALID,526.95,VALID,26.7455,VALID,181,VALID,1.09375,
2008-07-18, 08:37:04,VALID,1004.41,VALID,0,VALID,85.9012,VALID,534.391,VALID,26.7649,VALID,139,VALID,0.700781,
2008-07-18, 08:38:04,VALID,1004.41,VALID,0,VALID,86.4581,VALID,536.604,VALID,26.9013,VALID,195,VALID,1.33516,
2008-07-18, 08:39:04,VALID,1004.43,VALID,0,VALID,86.5649,VALID,545.453,VALID,26.9988,VALID,202,VALID,1.29805,
2008-07-18, 08:40:04,VALID,1004.46,VALID,0,VALID,85.0849,VALID,569.186,VALID,27.1936,VALID,120,VALID,1.73477,
2008-07-18, 08:41:04,VALID,1004.42,VALID,0,VALID,82.7962,VALID,562.449,VALID,27.1742,VALID,134,VALID,1.28242,
2008-07-18, 08:42:04,VALID,1004.45,VALID,0,VALID,83.5134,VALID,571.298,VALID,27.3126,VALID,134,VALID,2.025,
2008-07-18, 08:43:04,VALID,1004.48,VALID,0,VALID,83.7422,VALID,550.683,VALID,27.3106,VALID,171,VALID,1.15547,
2008-07-18, 08:44:04,VALID,1004.47,VALID,0,VALID,84.322,VALID,570.494,VALID,27.3126,VALID,138,VALID,1.58125,
2008-07-18, 08:45:04,VALID,1004.53,VALID,0,VALID,81.7816,VALID,573.712,VALID,27.408,VALID,141,VALID,2.06133,
2008-07-18, 08:46:04,VALID,1004.51,VALID,0,VALID,81.2857,VALID,573.712,VALID,27.4254,VALID,185,VALID,1.62188,
2008-07-18, 08:47:04,VALID,1004.49,VALID,0,VALID,84.3144,VALID,572.203,VALID,27.4254,VALID,182,VALID,1.5043,
2008-07-18, 08:48:04,VALID,1004.53,VALID,0,VALID,83.5668,VALID,379.424,VALID,27.6008,VALID,136,VALID,1.24219,
2008-07-18, 08:49:04,VALID,1004.5,VALID,0,VALID,82.1859,VALID,545.252,VALID,27.5424,VALID,163,VALID,1.02578,
2008-07-18, 08:50:04,VALID,1004.53,VALID,0,VALID,80.2635,VALID,469.73,VALID,27.5424,VALID,150,VALID,2.29961,
2008-07-18, 08:51:04,VALID,1004.55,VALID,0,VALID,83.048,VALID,404.162,VALID,27.6614,VALID,162,VALID,1.5082,
2008-07-18, 08:52:04,VALID,1004.53,VALID,0,VALID,79.6913,VALID,355.591,VALID,27.6008,VALID,196,VALID,1.61953,
2008-07-18, 08:53:04,VALID,1004.56,VALID,0,VALID,79.615,VALID,518.603,VALID,27.5229,VALID,157,VALID,2.9168,
2008-07-18, 08:54:04,VALID,1004.55,VALID,0,VALID,82.1707,VALID,397.827,VALID,27.4665,VALID,146,VALID,1.53086,
2008-07-18, 08:55:04,VALID,1004.52,VALID,0,VALID,81.3086,VALID,273.531,VALID,27.4275,VALID,136,VALID,1.8582,
2008-07-18, 08:56:04,VALID,1004.54,VALID,0,VALID,81.8655,VALID,218.523,VALID,27.4254,VALID,139,VALID,1.00898,
2008-07-18, 08:57:04,VALID,1004.52,VALID,0,VALID,80.0498,VALID,349.959,VALID,27.4254,VALID,125,VALID,1.60938,
2008-07-18, 08:58:04,VALID,1004.51,VALID,0,VALID,81.7663,VALID,512.972,VALID,27.4059,VALID,132,VALID,0.810938,
2008-07-18, 08:59:04,VALID,1004.56,VALID,0,VALID,81.3315,VALID,257.743,VALID,27.4644,VALID,168,VALID,1.94414,
2008-07-18, 09:00:04,VALID,1004.53,VALID,0,VALID,81.3925,VALID,455.45,VALID,27.4254,VALID,185,VALID,1.67383,
2008-07-18, 09:01:04,VALID,1004.51,VALID,0,VALID,79.7523,VALID,519.408,VALID,27.447,VALID,160,VALID,1.88672,
2008-07-18, 09:02:04,VALID,1004.53,VALID,0,VALID,81.0797,VALID,613.836,VALID,27.447,VALID,155,VALID,2.07539,
2008-07-18, 09:03:04,VALID,1004.52,VALID,0,VALID,80.3474,VALID,609.411,VALID,27.5229,VALID,143,VALID,2.25352,
2008-07-18, 09:04:04,VALID,1004.51,VALID,0,VALID,80.7059,VALID,477.071,VALID,27.6008,VALID,180,VALID,1.79688,
2008-07-18, 09:05:04,VALID,1004.52,VALID,0,VALID,81.4383,VALID,273.531,VALID,27.6203,VALID,135,VALID,1.55547,
2008-07-18, 09:06:04,VALID,1004.56,VALID,0,VALID,80.3779,VALID,519.609,VALID,27.5598,VALID,141,VALID,2.07969,
2008-07-18, 09:07:04,VALID,1004.57,VALID,0,VALID,81.3925,VALID,231.697,VALID,27.6203,VALID,162,VALID,1.42422,
2008-07-18, 09:08:04,VALID,1004.55,VALID,0,VALID,79.0886,VALID,221.842,VALID,27.6008,VALID,126,VALID,1.96016,
2008-07-18, 09:09:04,VALID,1004.55,VALID,0,VALID,80.1948,VALID,229.786,VALID,27.5424,VALID,166,VALID,1.9293,
2008-07-18, 09:10:04,VALID,1004.53,VALID,0,VALID,80.767,VALID,242.457,VALID,27.4644,VALID,186,VALID,1.99922,
2008-07-18, 09:11:04,VALID,1004.57,VALID,0,VALID,82.6131,VALID,249.698,VALID,27.4644,VALID,147,VALID,1.5625,
2008-07-18, 09:12:04,VALID,1004.55,VALID,0,VALID,81.0416,VALID,280.872,VALID,27.5229,VALID,110,VALID,1.56836,
2008-07-18, 09:13:04,VALID,1004.58,VALID,0,VALID,81.301,VALID,266.894,VALID,27.5034,VALID,162,VALID,1.86289,
2008-07-18, 09:14:04,VALID,1004.54,VALID,0,VALID,81.0416,VALID,224.959,VALID,27.3865,VALID,178,VALID,2.24727,
2008-07-18, 09:15:04,VALID,1004.52,VALID,0,VALID,81.507,VALID,192.88,VALID,27.3454,VALID,179,VALID,1.57187,
2008-07-18, 09:16:04,VALID,1004.53,VALID,0,VALID,82.5826,VALID,181.717,VALID,27.289,VALID,148,VALID,1.63594,
2008-07-18, 09:17:04,VALID,1004.5,VALID,0,VALID,81.5527,VALID,207.763,VALID,27.2306,VALID,177,VALID,1.47578,
2008-07-18, 09:18:04,VALID,1004.48,VALID,0,VALID,82.3309,VALID,353.479,VALID,27.2306,VALID,181,VALID,1.57148,
2008-07-18, 09:19:04,VALID,1004.47,VALID,0,VALID,82.0715,VALID,614.842,VALID,27.289,VALID,153,VALID,0.779297,
2008-07-18, 09:20:04,VALID,1004.42,VALID,0,VALID,81.0721,VALID,342.819,VALID,27.3649,VALID,155,VALID,1.41758,
2008-07-18, 09:21:04,VALID,1004.41,VALID,0,VALID,81.7282,VALID,635.96,VALID,27.525,VALID,145,VALID,1.51875,
2008-07-18, 09:22:04,VALID,1004.4,VALID,0,VALID,81.2018,VALID,671.258,VALID,27.6182,VALID,147,VALID,1.47695,
2008-07-18, 09:23:04,VALID,1004.37,VALID,0,VALID,78.9665,VALID,662.509,VALID,27.7957,VALID,183,VALID,1.93047,
2008-07-18, 09:24:04,VALID,1004.36,VALID,0,VALID,79.5921,VALID,695.192,VALID,27.8347,VALID,131,VALID,1.77461,
2008-07-18, 09:25:04,VALID,1004.34,VALID,0,VALID,79.8286,VALID,678.9,VALID,27.8326,VALID,176,VALID,2.14219,
2008-07-18, 09:26:04,VALID,1004.35,VALID,0,VALID,78.3181,VALID,618.16,VALID,27.8131,VALID,155,VALID,2.47539,
2008-07-18, 09:27:04,VALID,1004.34,VALID,0,VALID,80.0422,VALID,734.311,VALID,27.7957,VALID,184,VALID,1.4832,
2008-07-18, 09:28:04,VALID,1004.33,VALID,0,VALID,78.3028,VALID,739.439,VALID,27.8542,VALID,157,VALID,1.88711,
2008-07-18, 09:29:04,VALID,1004.31,VALID,0,VALID,78.7987,VALID,722.746,VALID,27.9105,VALID,122,VALID,1.83555,
2008-07-18, 09:30:04,VALID,1004.29,VALID,0,VALID,79.1191,VALID,724.657,VALID,28.0881,VALID,149,VALID,1.23672,
2008-07-18, 09:31:04,VALID,1004.29,VALID,0,VALID,77.868,VALID,732.4,VALID,28.1271,VALID,132,VALID,1.30469,
2008-07-18, 09:32:04,VALID,1004.29,VALID,0,VALID,76.327,VALID,720.735,VALID,28.244,VALID,136,VALID,2.32695,
2008-07-18, 09:33:04,VALID,1004.24,VALID,0,VALID,75.0682,VALID,721.841,VALID,28.1054,VALID,134,VALID,1.06328,
2008-07-18, 09:34:04,VALID,1004.25,VALID,0,VALID,77.868,VALID,750.803,VALID,28.244,VALID,164,VALID,0.896484,
2008-07-18, 09:35:04,VALID,1004.28,VALID,0,VALID,76.51,VALID,778.357,VALID,28.283,VALID,142,VALID,1.53516,
2008-07-18, 09:36:04,VALID,1004.3,VALID,0,VALID,78.7224,VALID,817.275,VALID,28.322,VALID,176,VALID,1.78047,
2008-07-18, 09:37:04,VALID,1004.31,VALID,0,VALID,77.5857,VALID,884.853,VALID,28.4779,VALID,157,VALID,1.23789,
2008-07-18, 09:38:04,VALID,1004.33,VALID,0,VALID,76.5177,VALID,877.914,VALID,28.4194,VALID,132,VALID,1.02773,
2008-07-18, 09:39:04,VALID,1004.33,VALID,0,VALID,78.2113,VALID,791.833,VALID,28.4194,VALID,156,VALID,2.27148,
2008-07-18, 09:40:04,VALID,1004.34,VALID,0,VALID,76.6702,VALID,775.34,VALID,28.4779,VALID,210,VALID,1.81211,
2008-07-18, 09:41:04,VALID,1004.37,VALID,0,VALID,76.5634,VALID,1004.02,VALID,28.4389,VALID,204,VALID,2.26563,
2008-07-18, 09:42:04,VALID,1004.34,VALID,0,VALID,77.2348,VALID,1017.8,VALID,28.4194,VALID,191,VALID,1.81211,
2008-07-18, 09:43:04,VALID,1004.35,VALID,0,VALID,77.25,VALID,326.226,VALID,28.3826,VALID,168,VALID,2.30586,
2008-07-18, 09:44:04,VALID,1004.35,VALID,0,VALID,77.9214,VALID,248.29,VALID,28.2245,VALID,165,VALID,2.31211,
2008-07-18, 09:45:04,VALID,1004.4,VALID,0,VALID,78.0892,VALID,237.53,VALID,28.1487,VALID,176,VALID,1.71523,
2008-07-18, 09:46:04,VALID,1004.4,VALID,0,VALID,77.5399,VALID,244.469,VALID,28.0101,VALID,180,VALID,1.24219,
2008-07-18, 09:47:04,VALID,1004.43,VALID,0,VALID,78.7224,VALID,246.078,VALID,27.9127,VALID,154,VALID,1.43555,
2008-07-18, 09:48:04,VALID,1004.41,VALID,0,VALID,77.7078,VALID,252.011,VALID,27.7957,VALID,175,VALID,2.31641,
2008-07-18, 09:49:04,VALID,1004.44,VALID,0,VALID,78.2113,VALID,262.972,VALID,27.6767,VALID,181,VALID,2.47734,
2008-07-18, 09:50:04,VALID,1004.43,VALID,0,VALID,81.5527,VALID,980.288,VALID,27.6203,VALID,138,VALID,1.2457,
2008-07-18, 09:51:04,VALID,1004.43,VALID,0,VALID,78.4325,VALID,613.333,VALID,27.7762,VALID,157,VALID,1.37227,
2008-07-18, 09:52:04,VALID,1004.46,VALID,0,VALID,78.5317,VALID,362.831,VALID,27.8542,VALID,150,VALID,1.30859,
2008-07-18, 09:53:04,VALID,1004.44,VALID,0,VALID,78.5088,VALID,205.651,VALID,27.9127,VALID,142,VALID,1.38047,
2008-07-18, 09:54:04,VALID,1004.45,VALID,0,VALID,78.1274,VALID,180.108,VALID,27.8542,VALID,117,VALID,1.5168,
2008-07-18, 09:55:04,VALID,1004.48,VALID,0,VALID,78.0587,VALID,194.589,VALID,27.7957,VALID,129,VALID,2.54336,
2008-07-18, 09:56:04,VALID,1004.47,VALID,0,VALID,77.3797,VALID,886.865,VALID,27.7178,VALID,140,VALID,1.90391,
2008-07-18, 09:57:04,VALID,1004.44,VALID,0,VALID,79.3251,VALID,425.08,VALID,27.8347,VALID,183,VALID,1.72148,
2008-07-18, 09:58:04,VALID,1004.45,VALID,0,VALID,78.7911,VALID,522.827,VALID,27.9538,VALID,168,VALID,1.40313,
2008-07-18, 09:59:04,VALID,1004.41,VALID,0,VALID,74.9309,VALID,862.026,VALID,27.9906,VALID,148,VALID,1.60273,
2008-07-18, 10:00:04,VALID,1004.42,VALID,0,VALID,75.3581,VALID,842.818,VALID,28.0686,VALID,156,VALID,1.48086,
2008-07-18, 10:01:04,VALID,1004.39,VALID,0,VALID,77.723,VALID,268.704,VALID,28.205,VALID,166,VALID,1.12617,
2008-07-18, 10:02:04,VALID,1004.38,VALID,0,VALID,77.0975,VALID,223.652,VALID,28.2245,VALID,180,VALID,2.12422,
2008-07-18, 10:03:04,VALID,1004.39,VALID,0,VALID,76.327,VALID,855.69,VALID,28.1271,VALID,125,VALID,1.98203,
2008-07-18, 10:04:04,VALID,1004.35,VALID,0,VALID,75.709,VALID,846.841,VALID,28.244,VALID,151,VALID,0.857813,
2008-07-18, 10:05:04,VALID,1004.34,VALID,0,VALID,75.381,VALID,839.701,VALID,28.3415,VALID,184,VALID,1.93086,
2008-07-18, 10:06:04,VALID,1004.29,VALID,0,VALID,75.0911,VALID,855.791,VALID,28.4216,VALID,202,VALID,1.36289,
2008-07-18, 10:07:04,VALID,1004.28,VALID,0,VALID,74.0307,VALID,515.385,VALID,28.5581,VALID,163,VALID,1.9207,
2008-07-18, 10:08:04,VALID,1004.33,VALID,0,VALID,73.6263,VALID,247.284,VALID,28.5364,VALID,137,VALID,1.82813,
2008-07-18, 10:09:04,VALID,1004.29,VALID,0,VALID,76.121,VALID,327.332,VALID,28.3631,VALID,124,VALID,1.1125,
2008-07-18, 10:10:04,VALID,1004.29,VALID,0,VALID,76.7389,VALID,344.026,VALID,28.2851,VALID,121,VALID,0.986328,
2008-07-18, 10:11:04,VALID,1004.29,VALID,0,VALID,75.6937,VALID,869.568,VALID,28.1877,VALID,111,VALID,1.14258,